Regional Weather Roundup
Issued by NWS

Home | Current Version | Previous Version | Text Only | Print | Product List | Glossary Off
Versions: 1 2 3 4 5 6 7 8 9 10 11 12 13 14 15 16 17 18 19 20 21 22 23 24 25 26 27 28 29 30 31 32 33 34 35 36 37 38 39 40 41 42 43 44 45 46 47 48 49 50

810
ASUS44 KMEG 011910
RWRTN
TENNESSEE HOURLY STATE WEATHER ROUNDUP
NATIONAL WEATHER SERVICE MEMPHIS TN
100 PM CST WED MAR 01 2017

TNZ002-004-019-021-049-052-054-088>092-012000-
WEST TENNESSEE

CITY           SKY/WX    TMP DP  RH WIND       PRES   REMARKS
MEMPHIS INTL   MOSUNNY   65  46  50 NW16G28   29.98R
NWS MEMPHIS      N/A     64 N/A N/A MISG        N/A
JACKSON        CLOUDY    64  48  56 NW18G26   29.92R
UNION CITY     SUNNY     61  37  41 NW22      29.90R
PARIS          MOSUNNY   63  46  55 W15       29.89R
HUNTINGDON     PTSUNNY   66  48  52 W14G22    29.88R
$$

TNZ008-025-027-028-033-062-065-066-012000-
NORTH MIDDLE TENNESSEE

CITY           SKY/WX    TMP DP  RH WIND       PRES   REMARKS
NASHVILLE      PTSUNNY   67  55  65 W13G20    29.81S
PORTLAND       PTSUNNY   68  55  64 W9G18     29.78S
CLARKSVILLE    PTSUNNY   70  44  39 W21G31    29.80R
SMYRNA         CLOUDY    66  59  78 SW9       29.82F
COOKEVILLE     MOSUNNY   61  59  94 SW7       29.81R
GALLATIN       CLOUDY    64  59  82 SW9G15    29.82S
CROSSVILLE     TSTM      57  54  89 W15G28    29.86F FOG
$$

TNZ061-075-076-078-094-096-097-012000-
SOUTH MIDDLE TENNESSEE

CITY           SKY/WX    TMP DP  RH WIND       PRES   REMARKS
FAYETTEVILLE   CLOUDY    61  59  94 W13G30    29.85R FOG
TULLAHOMA        N/A     57  55  94 SW10      29.87R
WINCHESTER     CLOUDY    72  61  68 W10G25    29.84F
MCMINNVILLE    PTSUNNY   61  61 100 SW14      29.83F
COLUMBIA       PTSUNNY   64  64 100 W7        29.83F
SHELBYVILLE    CLOUDY    63  63 100 SW6       29.84F
$$

TNZ017-018-042-046-047-012000-
NORTHEAST TENNESSEE

CITY           SKY/WX    TMP DP  RH WIND       PRES   REMARKS
TRI CITIES     TSTM      54  53  97 VRB3      29.86F FOG
ELIZABETHTON   HVY RAIN  57  52  82 VRB7      29.88R
$$

TNZ012-013-036-069-073-074-012000-
CENTRAL EAST TENNESSEE

CITY           SKY/WX    TMP DP  RH WIND       PRES   REMARKS
KNOXVILLE      TSTM      70  59  68 SW22G35   29.81F
OAK RIDGE      LGT RAIN  58  55  90 VRB5G18   29.85F FOG
DOWNTOWN KNOXV CLOUDY    63  61  94 VRB5      29.84R
MORRISTOWN     CLOUDY    59  59 100 NW7       29.83F FOG
JACKSBORO      CLOUDY    61  57  88 VRB6G18   29.82F HAZE
$$

TNZ083-085-099-012000-
SOUTHEAST TENNESSEE

CITY           SKY/WX    TMP DP  RH WIND       PRES   REMARKS
CHATTANOOGA    CLOUDY    73  62  68 S15G24    29.85F
$$

SKY/WX REPORTED AS FAIR MEANS FEW OR NO CLOUDS BELOW
12 THOUSAND FEET.





USA.gov is the U.S. government's official web portal to all federal, state and local government web resources and services.